When you browse on this site, cookies collect data to enhance your experience and personalize the content and advertising you see.
Visit our Privacy Policy to learn more. By continuing to use the site, you agree to this use of cookies and data.
  • In Portugal
  • List of Countries
  • For 7 days
  • Water Temperature
  • Satellite Maps
  • Weather Map
  • Weather Widgets
  • user-avatar
    Login

    Hourly Weather Razgrad

    Today, 20 May, Monday

    Time Temperature Precipitation Wind Pressure Humidity
    00:00 +20°C° 0 mm 3 mps 736 mmHg 70%
    01:00 +19°C° 0 mm 3 mps 736 mmHg 66%
    02:00 +19°C° 0 mm 3 mps 736 mmHg 62%
    03:00 +18°C° 0 mm 4 mps 736 mmHg 65%
    04:00 +18°C° 0 mm 4 mps 736 mmHg 67%
    05:00 +17°C° 0 mm 4 mps 736 mmHg 70%
    06:00 +18°C° 0 mm 4 mps 736 mmHg 69%
    07:00 +20°C° 0 mm 4 mps 736 mmHg 67%
    08:00 +21°C° 0 mm 5 mps 736 mmHg 66%
    09:00 +22°C° 0 mm 5 mps 736 mmHg 63%
    10:00 +25°C° 0 mm 4 mps 736 mmHg 59%
    11:00 +26°C° 0 mm 4 mps 736 mmHg 56%
    12:00 +26°C° 0 mm 4 mps 736 mmHg 55%
    13:00 +27°C° 0 mm 4 mps 736 mmHg 55%
    14:00 +27°C° 0 mm 3 mps 736 mmHg 54%
    15:00 +27°C° 0.2 mm 3 mps 736 mmHg 58%
    16:00 +26°C° 0.2 mm 3 mps 735 mmHg 62%
    17:00 +26°C° 0.2 mm 3 mps 735 mmHg 66%
    18:00 +24°C° 0.5 mm 3 mps 735 mmHg 72%
    19:00 +20°C° 0.5 mm 3 mps 735 mmHg 78%
    20:00 +18°C° 0.5 mm 3 mps 735 mmHg 83%
    21:00 +17°C° 0.2 mm 3 mps 736 mmHg 87%
    22:00 +16°C° 0.2 mm 2 mps 736 mmHg 91%
    23:00 +15°C° 0.2 mm 2 mps 737 mmHg 95%

    Tomorrow, 21 May, Tuesday

    Time Temperature Precipitation Wind Pressure Humidity
    00:00 +15°C° 0 mm 2 mps 737 mmHg 94%
    01:00 +15°C° 0 mm 1 mps 737 mmHg 93%
    02:00 +14°C° 0 mm 1 mps 737 mmHg 91%
    03:00 +14°C° 0 mm 1 mps 738 mmHg 91%
    04:00 +14°C° 0 mm 1 mps 738 mmHg 90%
    05:00 +14°C° 0 mm 1 mps 738 mmHg 89%
    06:00 +16°C° 0 mm 1 mps 738 mmHg 82%
    07:00 +19°C° 0 mm 1 mps 739 mmHg 75%
    08:00 +20°C° 0 mm 1 mps 739 mmHg 68%
    09:00 +20°C° 0 mm 2 mps 739 mmHg 63%
    10:00 +21°C° 0 mm 2 mps 739 mmHg 58%
    11:00 +23°C° 0 mm 2 mps 739 mmHg 52%
    12:00 +23°C° 0.1 mm 2 mps 739 mmHg 53%
    13:00 +23°C° 0.1 mm 2 mps 739 mmHg 54%
    14:00 +23°C° 0.1 mm 2 mps 738 mmHg 54%
    15:00 +23°C° 0.3 mm 2 mps 738 mmHg 57%
    16:00 +23°C° 0.3 mm 2 mps 738 mmHg 60%
    17:00 +23°C° 0.3 mm 2 mps 738 mmHg 63%
    18:00 +21°C° 0.1 mm 1 mps 738 mmHg 65%
    19:00 +20°C° 0.1 mm 1 mps 739 mmHg 68%
    20:00 +18°C° 0.1 mm 1 mps 739 mmHg 71%
    21:00 +18°C° 0 mm 1 mps 739 mmHg 73%
    22:00 +16°C° 0 mm 1 mps 739 mmHg 75%
    23:00 +15°C° 0 mm 1 mps 740 mmHg 77%

    Day after tomorrow, 22 May, Wednesday

    Time Temperature Precipitation Wind Pressure Humidity
    00:00 +15°C° 0 mm 1 mps 740 mmHg 77%
    01:00 +14°C° 0 mm 1 mps 740 mmHg 78%
    02:00 +14°C° 0 mm 1 mps 740 mmHg 78%
    03:00 +13°C° 0 mm 1 mps 740 mmHg 77%
    04:00 +13°C° 0 mm 1 mps 740 mmHg 75%
    05:00 +13°C° 0 mm 1 mps 741 mmHg 74%
    06:00 +15°C° 0 mm 2 mps 741 mmHg 70%
    07:00 +17°C° 0 mm 2 mps 741 mmHg 67%
    08:00 +19°C° 0 mm 3 mps 741 mmHg 63%
    09:00 +20°C° 0 mm 3 mps 741 mmHg 60%
    10:00 +21°C° 0 mm 3 mps 741 mmHg 57%
    11:00 +22°C° 0 mm 3 mps 741 mmHg 55%
    12:00 +24°C° 0 mm 3 mps 741 mmHg 54%
    13:00 +24°C° 0 mm 3 mps 741 mmHg 53%
    14:00 +25°C° 0 mm 3 mps 741 mmHg 53%
    15:00 +25°C° 0 mm 3 mps 740 mmHg 54%
    16:00 +25°C° 0 mm 2 mps 740 mmHg 56%
    17:00 +25°C° 0 mm 2 mps 740 mmHg 57%
    18:00 +23°C° 0 mm 2 mps 740 mmHg 63%
    19:00 +21°C° 0 mm 1 mps 740 mmHg 68%
    20:00 +19°C° 0 mm 1 mps 740 mmHg 74%
    21:00 +18°C° 0 mm 1 mps 740 mmHg 74%
    22:00 +18°C° 0 mm 1 mps 740 mmHg 75%
    23:00 +16°C° 0 mm 1 mps 740 mmHg 76%

    23 May, Thursday

    Time Temperature Precipitation Wind Pressure Humidity
    00:00 +16°C° 0 mm 1 mps 740 mmHg 76%
    01:00 +16°C° 0 mm 1 mps 740 mmHg 76%
    02:00 +15°C° 0 mm 1 mps 740 mmHg 76%
    03:00 +15°C° 0 mm 1 mps 740 mmHg 77%
    04:00 +15°C° 0 mm 1 mps 739 mmHg 78%
    05:00 +15°C° 0 mm 1 mps 739 mmHg 80%
    06:00 +16°C° 0 mm 1 mps 739 mmHg 76%
    07:00 +19°C° 0 mm 1 mps 740 mmHg 73%
    08:00 +20°C° 0 mm 2 mps 740 mmHg 70%
    09:00 +21°C° 0.1 mm 2 mps 740 mmHg 67%
    10:00 +23°C° 0.1 mm 2 mps 740 mmHg 65%
    11:00 +24°C° 0.1 mm 2 mps 739 mmHg 63%
    12:00 +24°C° 0.6 mm 2 mps 739 mmHg 62%
    13:00 +25°C° 0.6 mm 2 mps 739 mmHg 60%
    14:00 +25°C° 0.6 mm 2 mps 738 mmHg 58%
    15:00 +25°C° 0.3 mm 2 mps 738 mmHg 60%
    16:00 +25°C° 0.3 mm 2 mps 738 mmHg 62%
    17:00 +25°C° 0.3 mm 2 mps 737 mmHg 64%
    18:00 +23°C° 0.4 mm 2 mps 737 mmHg 70%
    19:00 +21°C° 0.4 mm 1 mps 737 mmHg 76%
    20:00 +19°C° 0.4 mm 1 mps 737 mmHg 82%
    21:00 +19°C° 0 mm 1 mps 737 mmHg 83%
    22:00 +18°C° 0 mm 1 mps 737 mmHg 84%
    23:00 +17°C° 0 mm 2 mps 737 mmHg 84%

    24 May, Friday

    Time Temperature Precipitation Wind Pressure Humidity
    00:00 +17°C° 0.3 mm 2 mps 737 mmHg 87%
    01:00 +17°C° 0.3 mm 2 mps 737 mmHg 89%
    02:00 +16°C° 0.3 mm 2 mps 737 mmHg 92%
    03:00 +16°C° 0.2 mm 2 mps 737 mmHg 92%
    04:00 +16°C° 0.2 mm 3 mps 737 mmHg 93%
    05:00 +14°C° 0.2 mm 3 mps 737 mmHg 93%
    06:00 +15°C° 0 mm 4 mps 737 mmHg 92%
    07:00 +15°C° 0 mm 5 mps 737 mmHg 90%
    08:00 +15°C° 0 mm 5 mps 737 mmHg 88%
    09:00 +16°C° 0.1 mm 5 mps 737 mmHg 86%
    10:00 +17°C° 0.1 mm 5 mps 737 mmHg 83%
    11:00 +17°C° 0.1 mm 5 mps 737 mmHg 81%
    12:00 +19°C° 0 mm 5 mps 736 mmHg 78%
    13:00 +20°C° 0 mm 5 mps 736 mmHg 76%
    14:00 +21°C° 0 mm 5 mps 736 mmHg 73%
    15:00 +21°C° 0 mm 5 mps 735 mmHg 74%
    16:00 +20°C° 0 mm 4 mps 735 mmHg 74%
    17:00 +20°C° 0 mm 4 mps 735 mmHg 74%
    18:00 +19°C° 0.9 mm 4 mps 735 mmHg 80%
    19:00 +18°C° 0.9 mm 3 mps 735 mmHg 85%
    20:00 +16°C° 0.9 mm 3 mps 735 mmHg 91%
    21:00 +16°C° 1.3 mm 3 mps 735 mmHg 92%
    22:00 +15°C° 1.3 mm 4 mps 735 mmHg 93%
    23:00 +14°C° 1.3 mm 4 mps 735 mmHg 94%

    25 May, Saturday

    Time Temperature Precipitation Wind Pressure Humidity
    00:00 +14°C° 0.3 mm 4 mps 735 mmHg 95%
    01:00 +13°C° 0.3 mm 4 mps 735 mmHg 95%
    02:00 +13°C° 0.3 mm 4 mps 735 mmHg 96%
    03:00 +13°C° 0.2 mm 3 mps 736 mmHg 96%
    04:00 +13°C° 0.2 mm 3 mps 736 mmHg 96%
    05:00 +14°C° 0.2 mm 2 mps 736 mmHg 96%
    06:00 +14°C° 0.2 mm 2 mps 736 mmHg 96%
    07:00 +14°C° 0.2 mm 2 mps 736 mmHg 95%
    08:00 +15°C° 0.2 mm 2 mps 737 mmHg 95%
    09:00 +15°C° 0.1 mm 2 mps 737 mmHg 92%
    10:00 +16°C° 0.1 mm 2 mps 737 mmHg 89%
    11:00 +17°C° 0.1 mm 2 mps 737 mmHg 86%
    12:00 +18°C° 0 mm 2 mps 737 mmHg 81%
    13:00 +20°C° 0 mm 1 mps 737 mmHg 76%
    14:00 +21°C° 0 mm 1 mps 736 mmHg 72%
    15:00 +22°C° 0 mm 1 mps 736 mmHg 70%
    16:00 +22°C° 0 mm 1 mps 736 mmHg 68%
    17:00 +22°C° 0 mm 1 mps 736 mmHg 66%
    18:00 +21°C° 0.7 mm 1 mps 737 mmHg 72%
    19:00 +19°C° 0.7 mm 1 mps 737 mmHg 79%
    20:00 +18°C° 0.7 mm 1 mps 737 mmHg 85%
    21:00 +16°C° 0 mm 1 mps 737 mmHg 87%
    22:00 +15°C° 0 mm 1 mps 737 mmHg 88%
    23:00 +15°C° 0 mm 1 mps 738 mmHg 89%
    Show more